Regional Weather Roundup
Issued by NWS

Home | Current Version | Previous Version | Graphics & Text | Print | Product List | Glossary On
Versions: 1 2 3 4 5 6 7 8 9 10 11 12 13 14 15 16 17 18 19 20 21 22 23 24 25 26 27 28 29 30 31 32 33 34 35 36 37 38 39 40 41 42 43 44 45 46 47 48 49 50
000
ASUS45 KABQ 202010
RWRNM
NEW MEXICO REGIONAL WEATHER ROUNDUP
NATIONAL WEATHER SERVICE ALBUQUERQUE NM
200 PM MDT FRI OCT 20 2017

NOTE: "FAIR" MEANS FEW OR NO CLOUDS BELOW 12,000 FEET AGL WITH NO
       SIGNIFICANT WEATHER OR OBSTRUCTIONS TO VISION.

      THIS PRODUCT IS RELEASED AS TWO VERSIONS.  ONE VERSION NEAR
      THE TOP OF THE HOUR CONTAINING PRELIMINARY DATA FROM ALBUQUERQUE
      AND OTHER STATIONS.  A FINAL VERSION WITH ADDITIONAL DATA IS
      ISSUED ABOUT 10 MINUTES AFTER THE HOUR.

NMZ501-503-504-510>518-202100-
NORTHWEST PLATEAU/NORTHCENTRAL MOUNTAINS

CITY           SKY/WX    TMP DP  RH WIND       PRES   REMARKS
FARMINGTON     FAIR      72  30  21 W10       29.84F
LOS ALAMOS     FAIR      62  40  44 S13       29.98F
SANTA FE       FAIR      67  43  41 SW16G24   29.95F
TAOS           FAIR      65  37  35 SW15G26   29.96F
ANGEL FIRE     FAIR      57  33  40 W22G30    29.97F

$$
NMZ402-403-502-505>509-202100-
WESTCENTRAL MOUNTAINS/SOUTHWEST MOUNTAINS

CITY           SKY/WX    TMP DP  RH WIND       PRES   REMARKS
GALLUP         FAIR      70  29  21 SW24G39   29.94F
GRANTS         FAIR      69  29  22 SW13G23   29.97F
SILVER CITY    PTSUNNY   75  32  21 W14G23    30.00F

$$
NMZ407-409-411-412-202100-
SOUTHERN DESERTS

CITY           SKY/WX    TMP DP  RH WIND       PRES   REMARKS
DEMING         FAIR      77  47  34 VRB5      29.94F
LAS CRUCES     FAIR      77  43  29 SW20      29.96F
HOLLOMAN AFB   FAIR      74  55  50 S12       29.95F
ALAMOGORDO     FAIR      75  48  38 S12       29.95F
T OR C         FAIR      74  49  41 S16G24    29.92F

$$
NMZ519>523-202100-
CENTRAL VALLEYS/CENTRAL HIGHLANDS

CITY           SKY/WX    TMP DP  RH WIND       PRES   REMARKS
ALBUQUERQUE    FAIR      71  43  36 S14G26    29.92F
DOUBLE EAGLE   MOSUNNY   72  43  35 S16G28    29.95F
MORIARTY ARPT  FAIR      73  35  24 W21G30    29.95F
CLINES CORNERS FAIR      68  31  25 W30G45    29.96F
BELEN          FAIR      73  44  34 S17G23    29.91F
SOCORRO        FAIR      72  46  38 S14G22    29.91F

$$
NMZ524>526-539-540-202100-
SOUTHCENTRAL MOUNTAINS

CITY           SKY/WX    TMP DP  RH WIND       PRES   REMARKS
RUIDOSO        FAIR      66  39  37 SW20G33   30.05F

$$
NMZ527>531-202100-
NORTHEAST HIGHLANDS/NORTHEAST PLAINS

CITY           SKY/WX    TMP DP  RH WIND       PRES   REMARKS
LAS VEGAS      FAIR      65  36  34 SW30G36   29.92F
RATON          FAIR      73  28  18 SW24G33   29.80F
CLAYTON        FAIR      76  40  27 SW18G33   29.75F

$$
NMZ532>537-202100-
EASTCENTRAL PLAINS

CITY           SKY/WX    TMP DP  RH WIND       PRES   REMARKS
SANTA ROSA     CLOUDY    76  41  29 SW20G36   29.84F
TUCUMCARI      FAIR      80  51  36 SW22G35   29.79F
CANNON AFB     FAIR      75  53  44 SW18G26   29.89F
CLOVIS AIRPORT FAIR      76  51  41 SW24      29.88F

$$
NMZ028-029-538-202100-
SOUTHEAST PLAINS

CITY           SKY/WX    TMP DP  RH WIND       PRES   REMARKS
ROSWELL        FAIR      79  50  36 SW13      29.85F
ARTESIA        FAIR      81  50  34 SW23G30   29.87F
CARLSBAD       FAIR      79  64  60 SE10G17   29.86F
HOBBS          SUNNY     75  55  50 S18G24    29.92F


$$




USA.gov is the U.S. government's official web portal to all federal, state and local government web resources and services.